User: anonymous   Login
Location: Caltech
(34.1382°N, 118.1253°W)
Time: 13:02:06
(UTC-07:00)
Language:

Iridium 65 - Orbit

View from above orbital plane
View from above orbital plane
View from above satellite
View from above satellite

Ground track
Ground track

The orbit data is extracted from the following two-line orbital elements,

1 25288U 98021D   15089.37128027  .00000727  00000-0  25254-3 0  9995
2 25288 086.4011 202.3432 0002349 099.5472 319.9525 14.34217717888945
Epoch (UTC): 30 March 2015 08:54:38
Eccentricity: 0.0002349
inclination: 86.4011°
perigee height: 776 km
apogee height: 779 km
right ascension of ascending node: 202.3432°
argument of perigee: 99.5472°
revolutions per day: 14.34217717
mean anomaly at epoch: 319.9525°
orbit number at epoch: 88894

The dashed part of the orbit path shows where the satellite is in the earth's shadow,  

DLR